Regional Weather Roundup
Issued by NWS

Home | Current Version | Previous Version | Graphics & Text | Print | Product List | Glossary On
Versions: 1 2 3 4 5 6 7 8 9 10 11 12 13 14 15 16 17 18 19 20 21 22 23 24 25 26 27 28 29 30 31 32 33 34 35 36 37 38 39 40 41 42 43 44 45 46 47 48 49 50
000
ASUS43 KBIS 221920
RWRND

NORTH DAKOTA REGIONAL WEATHER ROUNDUP
NATIONAL WEATHER SERVICE BISMARCK ND
200 PM CDT MON SEP 22 2014

NOTE: "FAIR" INDICATES FEW OR NO CLOUDS BELOW 12,000 FEET WITH NO
SIGNIFICANT WEATHER AND/OR OBSTRUCTIONS TO VISIBILITY.


NDZ001>003-009>011-017-222000-
NORTHWEST NORTH DAKOTA

CITY           SKY/WX    TMP DP  RH WIND       PRES   REMARKS
WILLISTON      SUNNY     80  42  25 S9        29.94F
MINOT          SUNNY     78  44  29 SE13      30.00F
MINOT AFB      SUNNY     77  45  32 S13       29.99F
$$

NDZ018>021-031>035-040>046-222000-
SOUTHWEST NORTH DAKOTA

CITY           SKY/WX    TMP DP  RH WIND       PRES   REMARKS
BISMARCK       SUNNY     81  45  28 SE20G26   30.02F
DICKINSON      SUNNY     77  48  35 S17       29.96F
GARRISON         N/A     76  49  38 SE10      30.00F
HETTINGER ARPT PTSUNNY   77  47  34 SE16      29.98F
$$

NDZ004>008-012>016-024-026-027-054-222000-
NORTHEAST NORTH DAKOTA

CITY           SKY/WX    TMP DP  RH WIND       PRES   REMARKS
GRAND FORKS    SUNNY     77  47  34 SW12      30.08F
GRND FRKS AFB  SUNNY     78  46  31 SW7       30.09F
DEVILS LAKE    SUNNY     75  43  31 S12       30.05F
$$

NDZ022-023-025-028>030-036>039-047>053-222000-
SOUTHEAST NORTH DAKOTA

CITY           SKY/WX    TMP DP  RH WIND       PRES   REMARKS
FARGO          SUNNY     75  47  36 SW13      30.12F
JAMESTOWN      SUNNY     75  44  33 S14       30.09F
$$



USA.gov is the U.S. government's official web portal to all federal, state and local government web resources and services.